Overview Statistics Trail Chart Weather Telemetry Raw packets
 

This is the latest recevied weather packets stored in our database for station/object KF6RAL-6. If no packets are shown the sender has not sent any weather packets the latest 10 day(s).

<< 6 7 8 9 10 11 12 >>
Time Temp. Humidity Pressure Rain* Wind** Luminosity Snow
1788626874 27.22° C 16% 1015.6 hPa 0 mm - - -
1788626454 26.67° C 16% 1015.7 hPa 0 mm - - -
1788626034 26.67° C 17% 1015.6 hPa 0 mm - - -
1788625612 26.67° C 17% 1015.4 hPa 0 mm - - -
1788625190 26.67° C 17% 1015.4 hPa 0 mm - - -
1788624769 26.67° C 16% 1015.3 hPa 0 mm - - -
1788624348 26.67° C 16% 1015.5 hPa 0 mm - - -
1788623927 26.67° C 17% 1015.5 hPa 0 mm - - -
1788623506 26.67° C 16% 1015.5 hPa 0 mm - - -
1788623086 26.67° C 16% 1015.5 hPa 0 mm - - -
1788622664 26.67° C 17% 1015.3 hPa 0 mm - - -
1788622244 26.67° C 16% 1015.3 hPa 0 mm - - -
1788621822 27.22° C 16% 1015.2 hPa 0 mm - - -
1788621401 27.22° C 16% 1015.2 hPa 0 mm - - -
1788620980 26.67° C 16% 1015.4 hPa 0 mm - - -
1788620559 25.56° C 16% 1015 hPa 0 mm - - -
1788620138 26.11° C 18% 1015.4 hPa 0 mm - - -
1788619717 26.11° C 15% 1015.2 hPa 0 mm - - -
1788619296 26.11° C 16% 1015.2 hPa 0 mm - - -
1788618875 25.56° C 17% 1014.6 hPa 0 mm - - -
1788618454 25.56° C 19% 1014.9 hPa 0 mm - - -
1788618033 26.11° C 17% 1014.8 hPa 0 mm - - -
1788617612 26.11° C 17% 1014.8 hPa 0 mm - - -
1788617191 26.11° C 17% 1014.8 hPa 0 mm - - -
1788616770 26.11° C 17% 1014.6 hPa 0 mm - - -

* Rain latest hour (hover to see other rain measurements)
** Current wind speed in m/s (hover to see current wind gust speed)